Location: Buffign�court
(47.8126°N, 6.0176°E)
Time: 02:06:32
(UTC+00:00)

COSMOS 2428 - Pass Details

Date: 16 June 2021
Orbit: 845 x 857 km, 70.9° (Epoch: 04 August)

Event Time Altitude Azimuth Distance (km) Brightness Sun altitude
Exits shadow 22:01:04 20° 184° (S) 1,868 4.0 -15.6°
Maximum altitude 22:04:57 59° 112° (ESE) 988 2.8 -15.9°
Drops below altitude 10° 22:10:35 10° 34° (NE) 2,502 5.6 -16.2°
Sets 22:13:05 0° 31° (NNE) 3,442 6.5 -16.4°
